Chehalis, WA
on Thursday, January 31, 2013

Thursday
Previous Day Next Day
Daily Summary
 ActualAverage (KOLM)Record (KOLM)
Temperature
Mean Temperature °F 40°F  
Max Temperature 48°F 48°F 61°F (1954)
Min Temperature 42°F 33°F 1°F (1950)
Degree Days
Heating Degree Days 20 25  
Month to date heating degree days 785  
Since 1 July heating degree days 3051  
Cooling Degree Days 0 0  
Month to date cooling degree days 0  
Year to date cooling degree days 0  
Moisture
Dew Point 45°F   
Average Humidity 92    
Maximum Humidity 100    
Minimum Humidity 87    
Precipitation
Precipitation 0.01 in 0.23 in 2.55 in (1987)
Month to date precipitation 7.84  
Year to date precipitation 7.84  
Wind
Wind Speed 5 mph   
Max Wind Speed 13 mph   
Max Gust Speed 16 mph   
Visibility 6 miles   
Events Fog , Rain   

Key: T is trace of precipitation, MM is missing value
Source: NWS Daily Summary
Time(PST)TemperatureDew PointHumidity Pressure Visibility Wind DirectionWind SpeedGust SpeedPrecipitationEvents Conditions
12:15 AM 48.2°F 46.4°F 93% 30.42 in 10.0 miles SSW 4.6 mph - N/A   Overcast
12:35 AM 48.2°F 46.4°F 93% 30.42 in 10.0 miles SSW 4.6 mph - N/A   Overcast
12:55 AM 48.2°F 46.4°F 93% 30.43 in 8.0 miles South 4.6 mph - N/A   Overcast
1:15 AM 48.2°F 46.4°F 93% 30.44 in 9.0 miles SW 3.5 mph - N/A   Mostly Cloudy
1:35 AM 48.2°F 46.4°F 93% 30.44 in 6.0 miles SW 3.5 mph - N/A   Overcast
1:55 AM 48.2°F 46.4°F 93% 30.44 in 7.0 miles South 4.6 mph - N/A   Overcast
2:15 AM 48.2°F 44.6°F 87% 30.44 in 6.0 miles Calm Calm - N/A   Overcast
2:35 AM 48.2°F 44.6°F 87% 30.45 in 6.0 miles South 3.5 mph - N/A   Overcast
2:55 AM 48.2°F 44.6°F 87% 30.45 in 10.0 miles South 4.6 mph - N/A   Overcast
3:15 AM 46.4°F 44.6°F 93% 30.44 in 10.0 miles South 4.6 mph - N/A   Overcast
3:35 AM 46.4°F 44.6°F 93% 30.44 in 10.0 miles South 5.8 mph - N/A   Overcast
3:55 AM 44.6°F 42.8°F 93% 30.43 in 10.0 miles South 5.8 mph - N/A   Mostly Cloudy
4:15 AM 44.6°F 42.8°F 93% 30.43 in 10.0 miles South 5.8 mph - N/A   Partly Cloudy
4:35 AM 44.6°F 42.8°F 93% 30.42 in 5.0 miles SSW 4.6 mph - N/A   Clear
4:55 AM 44.6°F 42.8°F 93% 30.42 in 5.0 miles SSW 4.6 mph - N/A   Partly Cloudy
5:15 AM 42.8°F 42.8°F 100% 30.42 in 2.5 miles SW 3.5 mph - N/A   Mostly Cloudy
5:35 AM 42.8°F 42.8°F 100% 30.42 in 5.0 miles SSW 4.6 mph - N/A   Overcast
5:55 AM 44.6°F 42.8°F 93% 30.42 in 0.8 miles SSW 3.5 mph - N/A   Overcast
6:15 AM 44.6°F 44.6°F 100% 30.42 in 0.5 miles SSW 4.6 mph - N/A Fog Fog
6:35 AM 44.6°F 44.6°F 100% 30.42 in 0.5 miles SSW 3.5 mph - N/A Fog Fog
6:55 AM 44.6°F 44.6°F 100% 30.42 in 0.2 miles SW 3.5 mph - N/A Fog Fog
7:15 AM 44.6°F 42.8°F 93% 30.42 in 0.5 miles SSW 3.5 mph - N/A Fog Fog
7:35 AM 42.8°F 42.8°F 100% 30.41 in 1.0 miles SW 3.5 mph - N/A   Overcast
7:55 AM 42.8°F 41.0°F 93% 30.41 in 4.0 miles SW 4.6 mph - N/A   Overcast
8:15 AM 42.8°F 42.8°F 100% 30.41 in 6.0 miles SSW 5.8 mph - N/A   Overcast
8:35 AM 44.6°F 42.8°F 93% 30.41 in 5.0 miles SSW 5.8 mph - N/A   Overcast
8:55 AM 44.6°F 44.6°F 100% 30.42 in 10.0 miles South 9.2 mph - N/A   Overcast
9:15 AM 44.6°F 44.6°F 100% 30.41 in 4.0 miles South 6.9 mph - N/A   Mostly Cloudy
9:35 AM 46.4°F 44.6°F 93% 30.41 in 4.0 miles SSW 6.9 mph - N/A   Mostly Cloudy
9:55 AM 46.4°F 44.6°F 93% 30.41 in 4.0 miles South 9.2 mph - N/A Rain Light Rain
10:15 AM 46.4°F 44.6°F 93% 30.42 in 3.0 miles SW 4.6 mph - N/A Rain Light Rain
10:35 AM 46.4°F 44.6°F 93% 30.42 in 4.0 miles South 6.9 mph - N/A Rain Light Rain
10:55 AM 46.4°F 44.6°F 93% 30.41 in 5.0 miles South 8.1 mph - N/A Rain Light Rain
11:15 AM 46.4°F 44.6°F 93% 30.40 in 10.0 miles South 8.1 mph - N/A Rain Light Rain
11:35 AM 46.4°F 44.6°F 93% 30.40 in 4.0 miles South 9.2 mph - N/A   Mostly Cloudy
11:55 AM 46.4°F 44.6°F 93% 30.40 in 5.0 miles South 8.1 mph - N/A   Overcast
12:15 PM 46.4°F 46.4°F 100% 30.38 in 8.0 miles South 6.9 mph - N/A   Overcast
12:35 PM 48.2°F 46.4°F 93% 30.38 in 10.0 miles South 6.9 mph - 0.01 in   Mostly Cloudy
12:55 PM 48.2°F 46.4°F 93% 30.38 in 5.0 miles South 6.9 mph - 0.01 in   Overcast
1:15 PM 48.2°F 44.6°F 87% 30.37 in 8.0 miles South 10.4 mph - N/A   Overcast
1:35 PM 48.2°F 44.6°F 87% 30.37 in 5.0 miles South 9.2 mph - N/A   Overcast
1:55 PM 48.2°F 44.6°F 87% 30.37 in 5.0 miles South 6.9 mph - N/A   Overcast
2:15 PM 48.2°F 44.6°F 87% 30.36 in 6.0 miles South 9.2 mph - N/A   Overcast
2:35 PM 48.2°F 46.4°F 93% 30.36 in 4.0 miles SSE 11.5 mph 16.1 mph N/A   Overcast
2:55 PM 48.2°F 46.4°F 93% 30.36 in 4.0 miles SSE 12.7 mph - N/A   Overcast
3:15 PM 48.2°F 46.4°F 93% 30.35 in 5.0 miles SSE 9.2 mph - N/A   Overcast
3:35 PM 48.2°F 44.6°F 87% 30.35 in 5.0 miles South 8.1 mph - N/A   Overcast
3:55 PM 48.2°F 44.6°F 87% 30.35 in 7.0 miles South 6.9 mph - N/A   Overcast
4:15 PM 48.2°F 44.6°F 87% 30.35 in 5.0 miles South 8.1 mph - N/A   Overcast
4:35 PM 48.2°F 44.6°F 87% 30.34 in 5.0 miles South 6.9 mph - N/A   Overcast
4:55 PM 48.2°F 44.6°F 87% 30.34 in 5.0 miles SSW 6.9 mph - N/A   Overcast
5:15 PM 48.2°F 44.6°F 87% 30.34 in 5.0 miles South 5.8 mph - N/A   Overcast
5:35 PM 48.2°F 44.6°F 87% 30.34 in 6.0 miles Calm Calm - N/A   Overcast
5:55 PM 48.2°F 44.6°F 87% 30.35 in 7.0 miles South 3.5 mph - N/A   Overcast
6:15 PM 48.2°F 44.6°F 87% 30.35 in 9.0 miles South 5.8 mph - N/A   Overcast
6:35 PM 48.2°F 44.6°F 87% 30.35 in 10.0 miles South 4.6 mph - N/A   Overcast
6:55 PM 48.2°F 44.6°F 87% 30.35 in 10.0 miles SSW 4.6 mph - N/A   Overcast
7:15 PM 46.4°F 44.6°F 93% 30.35 in 10.0 miles Calm Calm - N/A   Overcast
7:35 PM 46.4°F 44.6°F 93% 30.35 in 10.0 miles South 4.6 mph - N/A   Overcast
7:55 PM 48.2°F 44.6°F 87% 30.34 in 10.0 miles South 5.8 mph - N/A   Overcast
8:15 PM 48.2°F 44.6°F 87% 30.34 in 10.0 miles South 5.8 mph - N/A   Overcast
8:35 PM 46.4°F 44.6°F 93% 30.34 in 10.0 miles Calm Calm - N/A   Overcast
8:55 PM 46.4°F 44.6°F 93% 30.34 in 5.0 miles SSW 4.6 mph - N/A   Overcast
9:15 PM 46.4°F 44.6°F 93% 30.34 in 4.0 miles SSW 4.6 mph - N/A   Overcast
9:35 PM 46.4°F 44.6°F 93% 30.34 in 5.0 miles SW 3.5 mph - N/A   Overcast
9:55 PM 46.4°F 44.6°F 93% 30.35 in 5.0 miles SSW 4.6 mph - N/A   Overcast
10:15 PM 44.6°F 44.6°F 100% 30.35 in 3.0 miles Calm Calm - N/A   Overcast
10:35 PM 44.6°F 44.6°F 100% 30.35 in 4.0 miles Calm Calm - N/A   Overcast
10:55 PM 46.4°F 44.6°F 93% 30.35 in 4.0 miles SSW 3.5 mph - N/A   Overcast
11:15 PM 46.4°F 44.6°F 93% 30.35 in 5.0 miles Calm Calm - N/A   Overcast
11:35 PM 46.4°F 44.6°F 93% 30.35 in 5.0 miles SSW 3.5 mph - N/A   Overcast
11:55 PM 46.4°F 44.6°F 93% 30.36 in 6.0 miles Calm Calm - N/A   Overcast
Moon Phase
Jan. 31 Feb. 03 Feb. 10 Feb. 17 Feb. 25
Sunrise:07:36 AM (PST) Moon Rise:10:46 PM (PST)1/31
Sunset:05:14 PM (PST) Moon Set:09:18 AM (PST)1/31

Copyright © 2014 The Weather Underground, Inc.